Durango, CO

4:02 AM MDT on September 25, 2017 (GMT -0600)
Durango-La Plata County

Weather History for KDRO - February, 2014

Change the Weather History Date:

Friday, February 21, 2014

  Actual Average Record
Temperature  
Mean Temperature 30 °F 30 °F  
Max Temperature 49 °F 44 °F 62 °F (1972)
Min Temperature 11 °F 16 °F 7 °F (2013)
Degree Days  
Heating Degree Days 35 35  
Month to date heating degree days 664 788  
Since 1 July heating degree days 4737 4942  
Cooling Degree Days 0 0  
Month to date cooling degree days 0 0  
Year to date cooling degree days 0 0  
Moisture  
Dew Point 5 °F    
Average Humidity 43    
Maximum Humidity 73    
Minimum Humidity 13    
Precipitation  
Precipitation 0.00 in 0.05 in 0.51 in (1980)
Month to date precipitation 0.26 0.89  
Year to date precipitation 0.39 2.01  
Sea Level Pressure  
Sea Level Pressure 30.16 in    
Wind  
Wind Speed 6 mph (WNW)    
Max Wind Speed 24 mph    
Max Gust Speed 30 mph    
Visibility 10 miles    
Events      
T = Trace of Precipitation, MM = Missing Value Source: NWS Daily Summary

Daily Weather History Graph

Daily Weather History Graph

Search for Another Location

Airport or City:

Trip Planner

Search our weather history database for the weather conditions in past years. The results will help you decide how hot, cold, wet, or windy it might be!

Date:

Astronomy

Feb. 21, 2014 Rise Set
Actual Time 6:52 AM MST 5:57 PM MST
Civil Twilight 6:26 AM MST 6:23 PM MST
Nautical Twilight 5:55 AM MST 6:53 PM MST
Astronomical Twilight 5:25 AM MST 7:24 PM MST
Moon No Moon Rise 10:28 AM MST (2/21)
Length of Visible Light 11h 57m
Length of Day
11h 04m
Waning Gibbous, 60% of the Moon is Illuminated
Feb 21
Waning Gibbous
Feb 22
Last Quarter
Mar 1
New
Mar 8
First Quarter
Mar 16
Full

Hourly Weather History & Observations

Time (MST) Temp. Windchill Dew Point Humidity Pressure Visibility Wind Dir Wind Speed Gust Speed Precip Events Conditions
12:53 AM 16.0 °F 10.4 °F 3.0 °F 57% 30.23 in 10.0 mi North 3.5 mph - N/A   Clear
1:53 AM 12.9 °F 6.9 °F 3.9 °F 67% 30.24 in 10.0 mi East 3.5 mph - N/A   Clear
2:53 AM 14.0 °F - 3.9 °F 64% 30.22 in 10.0 mi Calm Calm - N/A   Clear
3:53 AM 10.9 °F - 3.9 °F 73% 30.24 in 10.0 mi Calm Calm - N/A   Clear
4:53 AM 12.0 °F - 5.0 °F 73% 30.24 in 10.0 mi Calm Calm - N/A   Clear
5:53 AM 10.9 °F 2.9 °F 3.9 °F 73% 30.25 in 10.0 mi NE 4.6 mph - N/A   Clear
6:53 AM 12.9 °F - 5.0 °F 71% 30.27 in 10.0 mi Calm Calm - N/A   Mostly Cloudy
7:53 AM 19.9 °F - 7.0 °F 57% 30.26 in 10.0 mi Calm Calm - N/A   Mostly Cloudy
8:53 AM 24.1 °F - 6.1 °F 46% 30.25 in 10.0 mi Calm Calm - N/A   Clear
9:53 AM 28.9 °F - 3.9 °F 35% 30.22 in 10.0 mi Calm Calm - N/A   Clear
10:53 AM 35.1 °F 32.2 °F 5.0 °F 28% 30.23 in 10.0 mi West 3.5 mph - N/A   Clear
11:53 AM 39.0 °F 34.8 °F 3.0 °F 22% 30.18 in 10.0 mi WSW 5.8 mph - N/A   Clear
12:53 PM 44.1 °F 38.1 °F 5.0 °F 20% 30.13 in 10.0 mi SSW 11.5 mph - N/A   Clear
1:53 PM 46.9 °F - 7.0 °F 20% 30.09 in 10.0 mi SW 11.5 mph 24.2 mph N/A   Clear
2:53 PM 48.0 °F - 5.0 °F 17% 30.06 in 10.0 mi West 23.0 mph 27.6 mph N/A   Clear
3:53 PM 46.9 °F - -2.0 °F 13% 30.06 in 10.0 mi WSW 20.7 mph 28.8 mph N/A   Clear
4:53 PM 45.0 °F 37.6 °F -2.9 °F 14% 30.07 in 10.0 mi West 17.3 mph - N/A   Clear
5:53 PM 41.0 °F 33.9 °F 1.9 °F 20% 30.09 in 10.0 mi West 12.7 mph - N/A   Clear
6:53 PM 37.0 °F 30.4 °F 3.9 °F 25% 30.11 in 10.0 mi WSW 9.2 mph - N/A   Clear
7:53 PM 34.0 °F 27.2 °F 5.0 °F 30% 30.10 in 10.0 mi West 8.1 mph - N/A   Clear
8:53 PM 32.0 °F - 5.0 °F 32% 30.10 in 10.0 mi Calm Calm - N/A   Clear
9:53 PM 27.0 °F 19.5 °F 9.0 °F 47% 30.10 in 10.0 mi North 6.9 mph - N/A   Clear
10:53 PM 24.1 °F 18.2 °F 9.0 °F 53% 30.08 in 10.0 mi NNE 4.6 mph - N/A   Clear
11:53 PM 24.1 °F 18.2 °F 10.0 °F 55% 30.05 in 10.0 mi North 4.6 mph - N/A   Clear